ZF1RC George Town KY current weather conditions

sailwx.info

Wind from 201 at 0 knots gusting 4

Air temperature 27.2° C
Dewpoint 23.7° C

Last reported at 2014-Oct-02 03:50 UTC.
Time now 2014-Oct-02 04:24 UTC

Location: N 19°16' W 081°23'.
View on Google Maps.

See reports from other nearby stations

  
Tides and Currents Weather Stations Pressure Air Temp Water Temp Dewpoint Dewpoint Depression Visibility Wind Speed Wind Dir Waves Ship Positions
date/time (UTC)wind fromknots sea level pressurealtimeterstation pressurevisibilityair tempwater tempwave heightnotes
2014-Oct-02 03:50 201 0 gusting 4 27.2
2014-Oct-02 03:40 099 0 gusting 0 27.2
2014-Oct-02 03:30 115 1 gusting 2 27.2
2014-Oct-02 03:20 083 1 gusting 6 27.2
2014-Oct-02 03:10 098 2 gusting 6 27.2
2014-Oct-02 03:00 120 2 gusting 4 27.2
2014-Oct-02 02:50 090 2 gusting 5 26.7
2014-Oct-02 02:40 077 2 gusting 4 26.7
2014-Oct-02 02:30 102 1 gusting 2 26.7
2014-Oct-02 02:20 094 2 gusting 2 26.7
2014-Oct-02 02:10 096 1 gusting 1 26.7
2014-Oct-02 02:00 103 1 gusting 2 27.2
2014-Oct-02 01:50 107 1 gusting 1 27.2
2014-Oct-02 01:40 101 2 gusting 2 27.2
2014-Oct-02 01:30 103 2 gusting 4 27.2
2014-Oct-02 01:20 090 1 gusting 2 27.8
2014-Oct-02 01:10 117 0 gusting 5 27.8
2014-Oct-02 01:00 107 2 gusting 4 27.8
2014-Oct-02 00:50 076 2 gusting 4 27.8
2014-Oct-02 00:40 126 4 gusting 4 27.8
2014-Oct-02 00:30 106 4 gusting 5 27.8
2014-Oct-02 00:20 093 1 gusting 4 27.8
2014-Oct-02 00:10 112 1 gusting 5 28.3
2014-Oct-02 00:00 114 2 gusting 6 28.3
2014-Oct-01 23:50 131 5 gusting 6 28.3
2014-Oct-01 23:40 145 28.3
2014-Oct-01 23:30 110 1 gusting 2 28.3
2014-Oct-01 23:20 161 28.3
2014-Oct-01 23:10 072 0 gusting 1 28.3
2014-Oct-01 23:00 154 0 gusting 1 28.9
2014-Oct-01 22:54 155 0 gusting 1 28.9
2014-Oct-01 22:50 091 0 gusting 1 28.9
2014-Oct-01 22:40 144 2 gusting 4 29.4
2014-Oct-01 22:30 197 0 gusting 1 29.4
2014-Oct-01 22:20 185 30.0
2014-Oct-01 22:10 278 30.0
2014-Oct-01 22:00 201 30.6
2014-Oct-01 21:40 109 0 gusting 0 30.6
2014-Oct-01 21:30 143 0 gusting 1 31.1
2014-Oct-01 21:20 326 0 gusting 2 31.1
2014-Oct-01 21:10 060 31.1
2014-Oct-01 21:00 217 1 gusting 1 31.7
2014-Oct-01 20:50 354 31.7
2014-Oct-01 20:40 318 0 gusting 1 31.7
2014-Oct-01 20:30 037 31.7
2014-Oct-01 20:20 210 1 gusting 1 31.1
2014-Oct-01 20:10 158 2 gusting 5 31.1
2014-Oct-01 20:00 102 1 gusting 1 31.1
2014-Oct-01 19:50 183 31.7
2014-Oct-01 19:40 143 31.1
2014-Oct-01 19:30 089 0 gusting 6 31.1
2014-Oct-01 19:20 206 4 gusting 6 31.7
2014-Oct-01 19:10 211 0 gusting 0 31.7
2014-Oct-01 19:00 133 2 gusting 4 31.7
2014-Oct-01 18:50 134 0 gusting 4 31.1
2014-Oct-01 18:40 128 1 gusting 4 31.1
2014-Oct-01 18:30 073 31.7
2014-Oct-01 18:20 168 0 gusting 4 31.7
2014-Oct-01 18:10 183 3 gusting 6 31.7
2014-Oct-01 18:00 059 1 gusting 6 31.1
2014-Oct-01 17:50 078 0 gusting 1 31.7
2014-Oct-01 17:40 107 0 gusting 4 31.7
2014-Oct-01 17:30 128 1 gusting 1 32.2
2014-Oct-01 17:20 177 0 gusting 6 31.7
2014-Oct-01 17:10 144 4 gusting 5 31.7
2014-Oct-01 17:00 173 1 gusting 6 31.7
2014-Oct-01 16:50 192 2 gusting 4 31.1
2014-Oct-01 16:40 057 0 gusting 2 31.1
2014-Oct-01 16:30 160 0 gusting 4 31.7
2014-Oct-01 16:20 172 30.6
2014-Oct-01 16:10 099 1 gusting 1 30.6
2014-Oct-01 16:00 130 30.0
2014-Oct-01 15:50 203 1 gusting 4 30.6
2014-Oct-01 15:40 31.1
2014-Oct-01 15:30 057 31.1
2014-Oct-01 15:20 179 0 gusting 4 30.6
2014-Oct-01 15:10 091 30.6
2014-Oct-01 15:00 077 3 gusting 6 30.6
2014-Oct-01 14:50 234 1 gusting 8 30.6
2014-Oct-01 14:40 147 0 gusting 1 30.6
2014-Oct-01 14:30 055 0 gusting 6 30.0
2014-Oct-01 14:20 089 30.0
2014-Oct-01 14:10 050 0 gusting 0 30.0
2014-Oct-01 14:00 252 0 gusting 0 30.0
2014-Oct-01 13:50 128 1 gusting 5 30.0
2014-Oct-01 13:40 078 1 gusting 6 30.0
2014-Oct-01 13:30 055 0 gusting 1 29.4
2014-Oct-01 13:20 114 30.0
2014-Oct-01 13:10 277 0 gusting 1 28.9
2014-Oct-01 13:00 098 0 gusting 0 28.9
2014-Oct-01 12:50 125 0 gusting 1 29.4
2014-Oct-01 12:40 135 1 gusting 4 28.9
2014-Oct-01 12:30 177 0 gusting 4 28.3
2014-Oct-01 12:20 118 1 gusting 1 28.3
2014-Oct-01 12:10 042 0 gusting 5 28.3
2014-Oct-01 12:00 098 1 gusting 4 28.3
2014-Oct-01 11:50 113 1 gusting 2 27.8
2014-Oct-01 11:40 163 1 gusting 4 27.8
2014-Oct-01 11:30 062 27.8
2014-Oct-01 11:20 124 1 gusting 4 27.8
2014-Oct-01 11:10 057 0 gusting 2 27.8
2014-Oct-01 11:00 104 0 gusting 5 27.8
2014-Oct-01 10:50 132 0 gusting 0 27.8
2014-Oct-01 10:40 126 1 gusting 2 27.8
2014-Oct-01 10:30 193 0 gusting 5 27.8
2014-Oct-01 10:20 165 0 gusting 4 27.8
2014-Oct-01 10:10 060 0 gusting 5 27.8
2014-Oct-01 10:00 204 27.8
2014-Oct-01 09:50 214 27.8
2014-Oct-01 09:40 235 0 gusting 0 27.8
2014-Oct-01 09:30 187 27.8
2014-Oct-01 09:20 086 0 gusting 1 27.8
2014-Oct-01 09:10 067 0 gusting 4 27.8
2014-Oct-01 09:00 138 0 gusting 1 27.8
2014-Oct-01 08:50 288 27.8
2014-Oct-01 08:40 160 0 gusting 1 27.8
2014-Oct-01 08:30 155 0 gusting 1 27.8
2014-Oct-01 08:20 186 27.8
2014-Oct-01 08:10 069 0 gusting 0 27.8
2014-Oct-01 08:00 107 27.8
2014-Oct-01 07:50 195 27.8
2014-Oct-01 07:40 102 27.8
2014-Oct-01 07:30 210 27.8
2014-Oct-01 07:20 162 27.2
2014-Oct-01 07:10 296 27.8
2014-Oct-01 07:00 185 0 gusting 0 27.2
2014-Oct-01 06:50 154 27.8
2014-Oct-01 06:40 237 27.2
2014-Oct-01 06:30 099 0 gusting 0 27.2
2014-Oct-01 06:20 177 27.2
2014-Oct-01 06:10 101 27.2
2014-Oct-01 06:00 112 27.2
2014-Oct-01 05:50 121 27.2
2014-Oct-01 05:40 139 27.2
2014-Oct-01 05:30 208 27.2
2014-Oct-01 05:20 098 27.2
2014-Oct-01 05:10 135 27.2
2014-Oct-01 05:00 092 27.2
2014-Oct-01 04:50 142 27.2
2014-Oct-01 04:40 120 27.2
2014-Oct-01 04:30 151 26.7
2014-Oct-01 04:20 194 26.7
2014-Oct-01 04:10 159 26.7
2014-Oct-01 04:00 073 26.7
2014-Oct-01 03:50 080 0 gusting 0 26.7
2014-Oct-01 03:40 107 26.7
2014-Oct-01 03:30 081 0 gusting 1 26.7
2014-Oct-01 03:20 058 1 gusting 1 26.7
2014-Oct-01 03:10 062 0 gusting 0 26.7
2014-Oct-01 03:00 063 0 gusting 0 26.7
2014-Oct-01 02:50 090 0 gusting 0 26.7
2014-Oct-01 02:40 075 0 gusting 1 26.7
2014-Oct-01 02:30 077 0 gusting 1 26.7
2014-Oct-01 02:20 084 1 gusting 1 26.7
2014-Oct-01 02:10 091 0 gusting 1 26.7
2014-Oct-01 02:00 087 0 gusting 0 26.7
2014-Oct-01 01:50 103 1 gusting 1 26.7
2014-Oct-01 01:40 088 1 gusting 1 27.2
2014-Oct-01 01:30 098 0 gusting 2 27.2
2014-Oct-01 01:20 105 1 gusting 2 27.2
2014-Oct-01 01:10 097 0 gusting 1 27.2
2014-Oct-01 01:00 114 0 gusting 0 26.7
2014-Oct-01 00:50 116 27.2
2014-Oct-01 00:40 094 27.2
2014-Oct-01 00:30 128 27.2
2014-Oct-01 00:20 129 27.2
2014-Oct-01 00:10 093 27.8
2014-Oct-01 00:00 113 27.8
2014-Sep-30 23:50 096 0 gusting 0 27.8
2014-Sep-30 23:40 146 0 gusting 1 28.3
2014-Sep-30 23:30 106 0 gusting 0 27.8
2014-Sep-30 23:20 162 27.8
2014-Sep-30 23:10 182 28.3
2014-Sep-30 23:00 182 0 gusting 0 28.3
2014-Sep-30 22:54 185 0 gusting 0 28.3
2014-Sep-30 22:50 098 28.3
2014-Sep-30 22:40 157 28.3
2014-Sep-30 22:30 177 0 gusting 1 28.3
2014-Sep-30 22:20 149 0 gusting 0 28.3
2014-Sep-30 22:10 147 28.9
2014-Sep-30 22:00 141 0 gusting 4 28.9
2014-Sep-30 21:50 126 28.9
2014-Sep-30 21:40 166 2 gusting 5 28.9
2014-Sep-30 21:30 156 4 gusting 5 28.9
2014-Sep-30 21:20 180 0 gusting 0 29.4
2014-Sep-30 21:10 146 29.4
2014-Sep-30 21:00 162 0 gusting 2 28.9
2014-Sep-30 20:50 181 2 gusting 5 29.4
2014-Sep-30 20:40 150 0 gusting 1 30.0
2014-Sep-30 20:30 175 1 gusting 4 30.0
2014-Sep-30 20:20 139 1 gusting 4 29.4
2014-Sep-30 20:10 013 29.4
2014-Sep-30 20:00 091 30.0
2014-Sep-30 19:50 173 2 gusting 5 30.0
2014-Sep-30 19:40 216 2 gusting 6 29.4
2014-Sep-30 19:30 125 0 gusting 6 29.4
2014-Sep-30 19:20 081 29.4
2014-Sep-30 19:10 047 29.4
2014-Sep-30 19:00 220 1 gusting 4 30.0
2014-Sep-30 18:50 226 0 gusting 1 30.0
2014-Sep-30 18:40 095 0 gusting 2 30.0
2014-Sep-30 18:30 139 29.4
2014-Sep-30 18:20 172 29.4
2014-Sep-30 18:10 116 1 gusting 2 28.9
2014-Sep-30 18:00 230 0 gusting 0 28.9
2014-Sep-30 17:50 003 0 gusting 0 28.9
2014-Sep-30 17:40 155 29.4
2014-Sep-30 17:30 077 0 gusting 1 29.4
2014-Sep-30 17:20 174 0 gusting 2 29.4
2014-Sep-30 17:10 038 29.4
2014-Sep-30 17:00 113 0 gusting 0 28.9
2014-Sep-30 16:50 141 0 gusting 0 28.9
2014-Sep-30 16:40 177 0 gusting 1 28.9
2014-Sep-30 16:30 267 28.3
2014-Sep-30 16:20 190 1 gusting 1 28.3
2014-Sep-30 16:10 082 28.3
2014-Sep-30 16:00 198 0 gusting 1 28.3
2014-Sep-30 15:50 115 28.3
2014-Sep-30 15:40 291 28.3
2014-Sep-30 15:30 185 2 gusting 5 28.3
2014-Sep-30 15:20 152 2 gusting 2 28.3
2014-Sep-30 15:10 150 0 gusting 4 28.3
2014-Sep-30 15:00 156 1 gusting 2 27.8
2014-Sep-30 14:50 180 1 gusting 4 27.8
2014-Sep-30 14:40 095 0 gusting 2 27.2
2014-Sep-30 14:30 241 0 gusting 0 27.2
2014-Sep-30 14:20 026 0 gusting 0 27.2
2014-Sep-30 14:10 158 26.7
2014-Sep-30 14:00 325 0 gusting 0 26.7
2014-Sep-30 13:50 011 26.7
2014-Sep-30 13:40 194 0 gusting 5 26.7
2014-Sep-30 13:30 133 1 gusting 1 26.7
2014-Sep-30 13:20 197 26.7
2014-Sep-30 13:10 160 0 gusting 2 26.1
2014-Sep-30 13:00 250 26.1
2014-Sep-30 12:50 183 1 gusting 2 26.1
2014-Sep-30 12:40 036 2 gusting 4 26.1
2014-Sep-30 12:30 130 4 gusting 6 26.1
2014-Sep-30 12:20 147 1 gusting 5 26.1
2014-Sep-30 12:10 175 5 gusting 6 26.1
2014-Sep-30 12:00 186 4 gusting 6 26.1
2014-Sep-30 11:50 150 3 gusting 5 26.1
2014-Sep-30 11:40 181 1 gusting 4 26.1
2014-Sep-30 11:30 034 0 gusting 1 26.1
2014-Sep-30 11:20 172 26.1
2014-Sep-30 11:10 129 2 gusting 5 25.6
2014-Sep-30 11:00 150 0 gusting 0 25.6
2014-Sep-30 10:50 034 0 gusting 0 25.6
2014-Sep-30 10:40 344 25.6
2014-Sep-30 10:30 156 25.6
2014-Sep-30 10:20 219 25.6
2014-Sep-30 10:10 095 0 gusting 1 25.0
2014-Sep-30 10:00 033 0 gusting 6 25.0
2014-Sep-30 09:50 077 0 gusting 4 25.6
2014-Sep-30 09:40 076 2 gusting 5 25.6
2014-Sep-30 09:30 093 2 gusting 4 26.1
2014-Sep-30 09:20 133 0 gusting 1 25.6
2014-Sep-30 09:10 085 1 gusting 1 25.6
2014-Sep-30 09:00 186 25.0
2014-Sep-30 08:50 114 25.0
2014-Sep-30 08:40 087 0 gusting 0 25.0
2014-Sep-30 08:30 063 25.0
2014-Sep-30 08:20 102 0 gusting 1 24.4
2014-Sep-30 08:10 090 1 gusting 1 24.4
2014-Sep-30 08:00 097 23.9
2014-Sep-30 07:50 106 1 gusting 1 24.4
2014-Sep-30 07:40 099 1 gusting 1 24.4
2014-Sep-30 07:30 073 0 gusting 1 23.9
2014-Sep-30 07:20 113 23.9
2014-Sep-30 07:10 100 1 gusting 1 23.9
2014-Sep-30 07:00 028 0 gusting 0 23.9
2014-Sep-30 06:50 093 23.9
2014-Sep-30 06:40 090 0 gusting 0 23.9
2014-Sep-30 06:30 081 0 gusting 0 23.9
2014-Sep-30 06:20 093 0 gusting 0 23.9
2014-Sep-30 06:10 109 23.3
2014-Sep-30 06:00 133 0 gusting 6 23.9
2014-Sep-30 05:50 074 0 gusting 1 25.0
2014-Sep-30 04:50 126 1 gusting 6 25.0
2014-Sep-30 04:40 173 5 gusting 7 25.0
2014-Sep-30 04:30 170 5 gusting 12 25.6
2014-Sep-30 04:20 125 26.7
2014-Sep-30 04:10 093 0 gusting 1 26.7
2014-Sep-30 04:00 088 1 gusting 1 26.7